User: anonymous   Login
Location: Ferchesar
(52.6477°N, 12.4298°E)
Time: 18:54:38
(UTC+02:00)
Language:

ISS - Orbit

View from above orbital plane
View from above orbital plane
View from above satellite
View from above satellite

Ground track
Ground track

The orbit data is extracted from the following two-line orbital elements,

1 25544U 98067A   21262.44943789  .00001483  00000-0  35755-4 0  9996
2 25544  51.6434 236.6399 0003274  32.3505 119.7142 15.48408756303208
Epoch (UTC): 19 September 2021 10:47:11
Eccentricity: 0.0003274
inclination: 51.6434°
perigee height: 419 km
apogee height: 423 km
right ascension of ascending node: 236.6399°
argument of perigee: 32.3505°
revolutions per day: 15.48408756
mean anomaly at epoch: 119.7142°
orbit number at epoch: 30320

The dashed part of the orbit path shows where the satellite is in the earth's shadow,  

DLR